Miscellaneous Local Product
Issued by NWS Hastings, NE

Home | Current Version | Previous Version | Graphics & Text | Print | Product List | Glossary On
Versions: 1 2 3 4 5 6 7 8 9 10 11 12 13 14 15 16 17 18 19 20 21 22 23 24 25 26 27 28 29 30 31 32 33 34 35 36 37 38 39 40 41 42 43 44 45 46 47 48 49 50
957
AXUS43 KGID 201202
MISGRI

GID CWA HOURLY WEATHER ROUNDUP
NATIONAL WEATHER SERVICE HASTINGS NE
600 AM CST FRI JAN 20 2017

NOTE: "FAIR" INDICATES FEW OR NO CLOUDS BELOW 12,000 FEET WITH NO
SIGNIFICANT WEATHER AND/OR OBSTRUCTIONS TO VISIBILITY.

...SOUTH CENTRAL NEBRASKA...

CITY           SKY/WX    TMP DP  RH WIND       PRES   REMARKS
GRAND ISLAND   FOG       36  36 100 S7        29.51S VSB 1/2 WCI  30
HASTINGS       FOG       37  36  96 S6        29.52R VSB 3/4 WCI  32
KEARNEY        CLOUDY    36  34  93 S5        29.51R VSB 1/4 WCI  32
ORD            MOCLDY    34  32  92 SW6       29.45S FOG     WCI  29
YORK           FOG       37  37 100 S8        29.53R VSB 1/4 WCI  31
AURORA         FOG       37  37 100 S7        29.52R VSB 1/2 WCI  31
LEXINGTON      CLOUDY    35  34  96 CALM      29.49S FOG
HOLDREGE       FOG       35  34  97 CALM      29.50S VSB 1/4
HEBRON         FOG       38  38  99 CALM      29.54S VSB 3/4

...NEBRASKA PANHANDLE...

CITY           SKY/WX    TMP DP  RH WIND       PRES   REMARKS
CHADRON        CLOUDY    24  19  81 SW5       29.41F WCI  18
ALLIANCE       CLOUDY    19  16  88 W6        29.42F WCI  11
SCOTTSBLUFF    CLEAR     26  21  81 NW7       29.44F WCI  18
SIDNEY         CLOUDY    27  23  85 W9        29.44S WCI  18

...WESTERN AND NORTH CENTRAL NEBRASKA...

CITY           SKY/WX    TMP DP  RH WIND       PRES   REMARKS
VALENTINE      CLOUDY    23  19  85 W8        29.38F WCI  14
AINSWORTH      CLEAR     28  27  94 SW9       29.39S WCI  20
ONEILL         CLEAR     33  33  99 S5        29.42S FOG     WCI  28
BROKEN BOW     CLEAR     34  33  96 W7        29.46F WCI  28
IMPERIAL       FOG       28  27  96 E5        29.45F VSB 1/4 WCI  23
NORTH PLATTE   CLOUDY    34  33  96 W6        29.49R WCI  29
MCCOOK         CLOUDY    33  33 100 NW5       29.48F FOG     WCI  29

...EASTERN NEBRASKA...

CITY           SKY/WX    TMP DP  RH WIND       PRES   REMARKS
NORFOLK        FOG       37  37 100 SE6       29.47R VSB 1/2 WCI  32
SO SIOUX CITY  CLOUDY    38  38 100 SE8       29.54S FOG     WCI  32
TEKAMAH        FOG       35  34  96 N3        29.54F VSB 1/2
COLUMBUS       CLOUDY    37  36  93 S6        29.53R VSB 1   WCI  33
ALBION         SNOW     N/A N/A N/A S8        29.49R VSB 1/4
OMAHA EPPLEY   CLOUDY    39  36  89 E10       29.54F WCI  32
MILLARD        CLOUDY    42  41  97 SE3       29.54F FOG
LINCOLN        FOG       37  37 100 S3        29.55S VSB 1/2
NEBRASKA CITY  FOG       38  38 100 CALM      29.56R VSB 1/4
BEATRICE       CLOUDY    40  40 100 S3        29.56R FOG
FALLS CITY     FOG       40  40 100 SE3       29.57R VSB 1/4

...NORTHERN KANSAS...

CITY           SKY/WX    TMP DP  RH WIND       PRES   REMARKS
GOODLAND       FOG       29  29 100 S5        29.45F VSB 3/4 WCI  24
HILL CITY      FOG       37  37 100 CALM      29.50S VSB 1/4
NORTON         FOG       36  34  93 CALM      29.47F VSB 1/2
PHILLIPSBURG   FOG       37  37 100 NE3       29.51S VSB 0
SMITH CENTER   FOG       37  37 100 SE3       29.52F VSB 1/4
HAYS           FOG       40  40 100 SW5       29.52R VSB 1/4
RUSSELL        FOG       41  41 100 CALM      29.49R VSB 1/4
CONCORDIA      CLOUDY    40  40 100 CALM      29.52F
SALINA           N/A    N/A N/A N/A MISG        N/A
TOPEKA         FOG       44  42  93 NE3       29.55F VSB 1



USA.gov is the U.S. government's official web portal to all federal, state and local government web resources and services.